Location: Niles Junction
(37.5763°N, 121.9714°W)
Time: 03:40:37
(UTC+00:00)

Cosmos 1726 Rocket - Pass Details

Date: 29 October 2020
Orbit: 604 x 628 km, 82.5° (Epoch: 23 November)

Event Time Altitude Azimuth Distance (km) Brightness Sun altitude
Rises 12:57:13 0° 351° (N) 2,921 6.9 -19.0°
Reaches altitude 10° 12:59:28 10° 349° (N) 2,011 6.0 -18.6°
Maximum altitude 13:03:55 76° 265° (W) 652 3.4 -17.7°
Drops below altitude 10° 13:08:20 10° 180° (S) 1,997 6.2 -16.8°
Sets 13:10:33 0° 178° (S) 2,899 7.1 -16.4°
